EW0345 Weather Reports


Display with metric or nautical units.
time (UTC)temp
F
wind
direction
speed
MPH
gust
MPH
rain 1hr
in
rain 24hr
in
rain mn
in
humidity
%
barometer
mb
20260507020050 58 0.0 0.0 0.00 0.01 0.01 94 1006.7
20260507014553 59 0.0 0.0 0.00 0.01 0.01 95 1006.3
20260507013037 59 0.0 0.0 0.00 0.01 0.01 95 1006.1
20260507011539 59 0.0 0.0 0.00 0.01 0.01 95 1006.1
20260507010036 59 0.0 0.0 0.00 0.01 0.01 95 1006.1
20260507004544 59 0.0 0.0 0.00 0.01 0.01 95 1006.0
20260507003042 59 0.0 0.0 0.00 0.01 0.01 95 1005.9
20260507001536 59 0.0 0.0 0.00 0.01 0.01 95 1005.9
20260507000046 60 0.0 0.0 0.00 0.01 0.01 95 1005.8
20260506234543 60 0.0 0.0 0.00 0.01 0.01 95 1005.6
20260506233041 60 0.0 0.0 0.00 0.01 0.01 95 1005.6
20260506231542 60 0.0 0.0 0.00 0.01 0.01 95 1005.7
20260506230040 60 0.0 0.0 0.00 0.01 0.01 95 1005.8
20260506224538 60 0.0 0.0 0.00 0.01 0.01 95 1005.9
20260506223046 60 0.0 0.0 0.00 0.01 0.01 94 1006.0
20260506221544 60 0.0 0.0 0.00 0.01 0.01 94 1006.1
20260506220043 60 0.0 0.0 0.00 0.01 0.01 94 1006.2
20260506214540 60 0.0 0.0 0.00 0.01 0.01 94 1006.1
20260506213039 61 0.0 0.0 0.00 0.01 0.01 94 1006.2
20260506211536 61 0.0 0.0 0.00 0.01 0.01 94 1006.2
20260506210049 61 0.0 0.0 0.00 0.01 0.01 94 1006.2
20260506204542 62 0.0 0.0 0.00 0.01 0.01 94 1006.4
20260506203048 62 0.0 0.0 0.00 0.01 0.01 93 1006.5
20260506201545 62 0.0 0.0 0.00 0.01 0.01 93 1006.7
20260506200038 62 0.0 0.0 0.00 0.01 0.01 93 1006.8
20260506194540 62 0.0 0.0 0.00 0.01 0.01 93 1007.0
20260506193045 62 0.0 0.0 0.00 0.01 0.01 92 1007.0
20260506191543 63 0.0 0.0 0.00 0.01 0.01 92 1006.7
20260506190041 63 0.0 0.0 0.00 0.01 0.01 91 1006.9
20260506184548 63 0.0 0.0 0.00 0.01 0.01 91 1007.4
20260506183046 64 0.0 0.0 0.00 0.01 0.01 89 1007.7
20260506181542 64 0.0 0.0 0.00 0.01 0.01 86 1007.7
20260506180043 66 0.0 0.0 0.00 0.01 0.01 81 1008.1
20260506174541 68 0.0 0.0 0.00 0.01 0.01 74 1008.2
20260506173051 69 0.0 0.0 0.00 0.01 0.01 66 1007.7
20260506171549 70 0.0 0.0 0.00 0.01 0.01 63 1007.6
20260506170034 70 0.0 0.0 0.00 0.01 0.01 66 1007.6
20260506164543 70 0.0 0.0 0.00 0.01 0.01 65 1007.6
20260506163058 70 0.0 0.0 0.00 0.01 0.01 66 1007.8
20260506161544 70 0.0 0.0 0.00 0.01 0.01 67 1007.9
20260506160042 69 0.0 0.0 0.00 0.01 0.01 67 1008.3
20260506154540 69 0.0 0.0 0.00 0.01 0.01 68 1008.6
20260506153039 69 0.0 0.0 0.00 0.01 0.01 68 1008.6
20260506151535 69 0.0 0.0 0.00 0.01 0.01 69 1008.9
20260506150041 68 0.0 0.0 0.00 0.01 0.01 70 1008.9
20260506144540 68 0.0 0.0 0.00 0.01 0.01 69 1009.0
20260506143038 68 0.0 0.0 0.00 0.01 0.01 71 1008.9
20260506141549 66 0.0 0.0 0.00 0.01 0.01 74 1008.9
20260506140053 65 0.0 0.0 0.00 0.01 0.01 75 1008.7
20260506134542 64 0.0 0.0 0.00 0.01 0.01 77 1008.9
20260506133040 63 0.0 0.0 0.00 0.01 0.01 78 1009.2
20260506131540 63 0.0 0.0 0.00 0.01 0.01 78 1009.2
20260506130042 63 0.0 0.0 0.00 0.01 0.01 78 1009.3
20260506124544 62 0.0 0.0 0.00 0.01 0.01 78 1009.4
20260506123043 62 0.0 0.0 0.00 0.01 0.01 79 1009.3
20260506121543 62 0.0 0.0 0.00 0.01 0.01 79 1009.3
20260506120036 61 0.0 0.0 0.00 0.01 0.01 79 1009.6
20260506114551 61 0.0 0.0 0.00 0.01 0.01 79 1009.8
20260506113044 60 0.0 0.0 0.00 0.01 0.01 80 1009.9
20260506111544 60 0.0 0.0 0.00 0.01 0.01 80 1010.0
20260506110041 60 0.0 0.0 0.00 0.01 0.01 81 1009.9
20260506104543 59 0.0 0.0 0.00 0.01 0.01 81 1010.1
20260506103039 59 0.0 0.0 0.00 0.01 0.01 81 1009.9
20260506101545 59 0.0 0.0 0.00 0.01 0.01 81 1009.8
20260506100047 59 0.0 0.0 0.00 0.01 0.01 81 1009.7
20260506094546 58 0.0 0.0 0.00 0.01 0.01 81 1009.9
20260506093101 58 0.0 0.0 0.00 0.01 0.01 80 1009.6
20260506091545 58 0.0 0.0 0.00 0.01 0.01 79 1009.8
20260506090039 58 0.0 0.0 0.00 0.01 0.01 78 1009.5
20260506084536 59 0.0 0.0 0.00 0.01 0.01 76 1009.7
20260506083037 59 0.0 0.0 0.00 0.01 0.01 75 1009.6
20260506081534 60 0.0 0.0 0.00 0.01 0.01 74 1009.6
20260506073035 60 0.0 0.0 0.00 0.01 0.01 73 1009.7
20260506071546 60 0.0 0.0 0.00 0.01 0.01 72 1009.6
20260506061553 62 0.0 0.0 0.00 0.01 0.01 69 1009.2
20260506044536 63 0.0 0.0 0.01 0.01 0.01 66 1009.5
20260506043051 64 0.0 0.0 0.01 0.01 0.01 65 1009.4
20260506041552 65 0.0 0.0 0.01 0.01 0.01 64 1009.5
20260506040047 65 0.0 0.0 0.00 0.00 0.00 63 1009.4
20260506034540 66 0.0 0.0 0.00 0.00 0.00 62 1009.4
20260506033039 66 0.0 0.0 0.00 0.00 0.00 62 1009.3
20260506031536 66 0.0 0.0 0.00 0.00 0.00 62 1009.3
20260506030045 67 0.0 0.0 0.00 0.00 0.00 63 1009.4
20260506024543 67 0.0 0.0 0.00 0.00 0.00 62 1009.1
20260506023051 67 0.0 0.0 0.00 0.00 0.00 63 1009.1
20260506021539 67 0.0 0.0 0.00 0.00 0.00 66 1009.0